Flag for U.S.A. Weather past 2 weeks in Tyler, Texas, U.S.A.

Now
82 °F

Sunny.


Feels Like: 85 °F
Forecast: 71 / 90 °F
Wind: No wind

Location: Tyler Pounds Field

Current Time: Sep 1, 2015 at 11:45:09 AM

Latest Report: Sep 1, 2015 at 10:53 AM


Visibility: 10 mi

Pressure: 30.07 "Hg

Humidity: 63%

Dew point: 68 °F

Location of TylerLocation

Historic Weather in Tyler — Graph

°F

Tyler temperature yesterday

Maximum temperature yesterday: 90 °F (at 2:53 PM)
Minimum temperature yesterday: 71 °F (at 5:53 AM)
Average temperature yesterday: 81 °F

Past Weeks' High & Low Weather Summary

 TemperatureHumidityPressure
High97 °F (Aug 18, 3:53 PM)97% (Aug 20, 1:03 PM)30.14 "Hg (Aug 20, 1:03 PM)
Low67 °F (Aug 27, 6:53 AM)29% (Aug 26, 3:53 PM)29.72 "Hg (Aug 18, 6:53 PM)
Average81 °F68%29.97 "Hg
* Reported Aug 17 9:53 AM — Sep 1 9:53 AM, Tyler, Weather by CustomWeather, © 2015

Note: Actual official high and low records may vary slightly from our data, if they occured in-between our weather recording intervals... More about our weather records

Advertising

Tyler weather history for previous 24 hours

 ConditionsComfort  
Time TempWeatherWind HumidityBarometerVisibility
9:53 AM
Tue, Sep 1
81 °FSunny.6 mph67%30.06 "Hg10 mi
8:53 AM77 °FSunny.7 mph79%30.04 "Hg10 mi
7:53 AM73 °FClear.No wind88%30.02 "Hg10 mi
6:53 AM70 °FClear.5 mph90%30.01 "Hg8 mi
5:53 AM73 °FClear.3 mph84%30.00 "Hg10 mi
4:53 AM73 °FPassing clouds.3 mph84%30.01 "Hg10 mi
3:53 AM73 °FPassing clouds.5 mph84%30.02 "Hg10 mi
2:53 AM73 °FClear.7 mph84%30.01 "Hg10 mi
1:53 AM75 °FClear.3 mph79%30.02 "Hg10 mi
12:53 AM76 °FClear.6 mph74%30.01 "Hg10 mi
11:53 PM
Mon, Aug 31
77 °FClear.7 mph71%29.99 "Hg10 mi
9:53 PM82 °FClear.12 mph56%29.98 "Hg10 mi
8:53 PM84 °FClear.7 mph55%29.96 "Hg10 mi
7:53 PM86 °FSunny.7 mph49%29.95 "Hg10 mi
6:53 PM88 °FSunny.7 mph45%29.96 "Hg10 mi
5:53 PM90 °FSunny.6 mph42%29.96 "Hg10 mi
4:53 PM89 °FSunny.7 mph43%29.96 "Hg10 mi
3:53 PM90 °FSunny.No wind41%29.97 "Hg10 mi
2:53 PM90 °FSunny.8 mph43%30.00 "Hg10 mi
1:53 PM89 °FScattered clouds.3 mph45%30.01 "Hg10 mi
12:53 PM86 °FPartly sunny.No wind51%30.03 "Hg10 mi
11:53 AM85 °FPassing clouds.7 mph55%30.05 "Hg10 mi
Weather by CustomWeather, © 2015

See weather overviewHow to use our weather pages